DECAYED

STARLINK-1651, 46366 (Decayed)

Orbit data source: Space-Track

STARLINK-1651, 46366 was a payload satellite owned by SpaceX/Seattle (US) in LEO that was launched on Thu, 03 Sep 2020 UTC via an FALCON 9 launch vehicle from the Air Force Eastern Test Range (AFETR). Payload-class satellites include a variety of spacecraft equipped with specific instruments for various scientific and technological missions. These include communications satellites like Starlink; space stations such as the ISS; scientific satellites like the Hubble; Earth observation satellites from companies like Planet Labs, Umbra, and HawkEye 360; GPS; miniature CubeSats for education and research; and military/defense satellites.

Not visible in the next 10 days
Identifier
46366, 2020-062AT
Orbit
Decayed
Country
Flag of USUS
Related business
Manufacturer
SpaceX/Seattle
Mission
Decayed Commercial Communications
Bus & Motor
STARLINK, Unknown motor
Mass
260 kg wet, ~248 kg dry
Launch date (UTC)
2020-09-03 (6 years ago)
Launch vehicle
FALCON 9
Launch site
Air Force Eastern Test Range (AFETR)
Object type
Payload
Rocket body
Debris
Shape & HBR
Box + 1 Pan, 10.1 m
Radar Cross Section
13.562 m², Large (>1 m²)

Expand to show TLE details & history
Last TLE update: 6 months ago

TLE from 6 months ago
0 STARLINK-1651
1 46366U 20062AT  26061.89895882  .11338563  12405-4  52076-3 0  9996
2 46366  53.0202 299.8381 0006417 248.9983 111.0378 16.42914037304780
Epoch: 2026-03-02T21:34Z
TLE epoch observation values (Epoch: 2026-03-02T21:34:30.042Z)
Latitude
-0.00001°
Longitude
175.52716°
Altitude
160.498 km
Speed
7.81 km/s
True Right ascension
19h 59m 21s
True Declination
0° 00' 00"
Sunlit
Object was in daylight at epoch
Visualization orbit readout
Latitude
Unknown
Longitude
Unknown
Altitude
Unknown
Speed
Unknown
Apparent Right ascension
Unknown
Apparent Declination
Unknown
Sunlit
N/A
Visualization observer readout
Local Sidereal Time
08:23:36
Azimuth
Unknown
Elevation
Unknown
Doppler factor
Unknown
Orbital elements
Apogee altitude
162.549 km
Perigee altitude
154.16 km
Semi-major axis
6,536.491 km
Eccentricity
0.00064
Inclination
53.0202°
RAAN
299.8381°
Arg. of periapsis
248.9983°
True anomaly
111.10641°
Mean anomaly
111.0378°
Eccentric anomaly
111.07211°
Mean motion
4.10701 °/min
Orbital period
87.65 mins
BSTAR
0.00052076
Loading maneuver chart data...
Computing Atmospheric mass density...

Documentation

Showing up to 5 results
|